Weather in Fort Worth

United States     32°45′37″N   97°21′01″W
temp.,
°C
wind,
m/s
gust,
m/s
humid.,
%
clouds,
%
prec.,
mm/h
press.,
hPa
HPBL,
m
7 may, fri
fri701:00+20se11670 0.0 102244
04:00+19ese25690 0.0 1021170
07:00+17ese37725 0.0 1022254
10:00+21se47615 0.0 1022567
13:00+26s57435 0.0 10201296
16:00+28s683921 0.0 10171513
19:00+26s610500 0.0 10141291
22:00+22sse5135972 0.0 1014701
8 may, sat
sat801:00+21s614689 0.0 1015735
04:00+19s516725 0.0 1014680
07:00+18s617865 0.0 1012621
10:00+21ssw81578100 0.0 1012993
13:00+26s8136351 0.1 10111437
16:00+29s9135515 0.1 10081780
19:00+28s7145522 0.1 10061363
22:00+24s916720 0.0 10061015
9 may, sun
sun901:00+22s10188395 0.4 10071032
04:00+22ssw9178580 0.1 1006876
07:00+22ssw8168347 0.1 1006908
10:00+25sw7126994 0.0 10081155
13:00+29sw6954100 0.1 10071780
16:00+29s465767 0.1 1006929
19:00+28s58640 0.1 1005648
22:00+24nne34850 3.4 1008102
10 may, mon
mon1001:00+18ne612888 4.4 1011460
04:00+16ne5128474 0.0 1011442
07:00+15nne5782100 0.0 1013435
10:00+14n5788100 0.5 1015427
13:00+15nne5683100 0.6 1016472
16:00+16nne5780100 0.0 1015594
19:00+15nne4889100 0.7 1016573
22:00+14ne51193100 0.6 1017557
11 may, tue
tue1101:00+15ne4895100 2.7 1019538
04:00+14ene51096100 0.9 1017431
07:00+14ene3795100 1.1 1019488
10:00+14ene5993100 0.0 1020453
13:00+15e4892100 0.1 1020478
16:00+17e3891100 0.1 1018611
19:00+17e4896100 1.6 1017574
22:00+17ese41297100 1.3 1017473